This is the latest recevied weather packets stored in our database for station/object OH2HCY. If no packets are shown the sender has not sent any weather packets the latest 10 day(s).
| Time | Temp. | Humidity | Pressure | Rain* | Wind** | Luminosity | Snow |
|---|---|---|---|---|---|---|---|
| 1778045059 | 5° C | 59% | 1010.6 hPa | - | - | - | - |
| 1778044512 | 5° C | 60% | 1010.5 hPa | - | - | - | - |
| 1778043992 | 5° C | 61% | 1010.5 hPa | - | - | - | - |
| 1778043480 | 4.44° C | 62% | 1010.5 hPa | - | - | - | - |
| 1778042950 | 3.89° C | 63% | 1010.5 hPa | - | - | - | - |
| 1778042425 | 3.89° C | 65% | 1010.5 hPa | - | - | - | - |
| 1778041874 | 3.33° C | 65% | 1010.6 hPa | - | - | - | - |
| 1778041295 | 3.33° C | 66% | 1010.6 hPa | - | - | - | - |
| 1778040725 | 2.78° C | 68% | 1010.7 hPa | - | - | - | - |
| 1778040170 | 2.22° C | 70% | 1010.8 hPa | - | - | - | - |
| 1778039650 | 1.67° C | 71% | 1010.8 hPa | - | - | - | - |
| 1778039092 | 1.67° C | 72% | 1010.8 hPa | - | - | - | - |
| 1778038540 | 1.11° C | 72% | 1010.7 hPa | - | - | - | - |
| 1778038015 | 1.11° C | 72% | 1010.7 hPa | - | - | - | - |
| 1778037455 | 1.11° C | 72% | 1010.6 hPa | - | - | - | - |
| 1778036930 | 1.11° C | 72% | 1010.5 hPa | - | - | - | - |
| 1778036388 | 0.56° C | 72% | 1010.4 hPa | - | - | - | - |
| 1778035815 | 0.56° C | 72% | 1010.4 hPa | - | - | - | - |
| 1778035290 | 0.56° C | 72% | 1010.3 hPa | - | - | - | - |
| 1778034750 | 0.56° C | 73% | 1010.2 hPa | - | - | - | - |
| 1778034209 | 0.56° C | 72% | 1010.2 hPa | - | - | - | - |
| 1778033688 | 0.56° C | 71% | 1010 hPa | - | - | - | - |
| 1778033155 | 1.11° C | 71% | 1009.9 hPa | - | - | - | - |
| 1778032570 | 1.11° C | 71% | 1009.9 hPa | - | - | - | - |
| 1778032025 | 1.11° C | 71% | 1009.8 hPa | - | - | - | - |
* Rain since midnight (hover to see other rain measurements)
** Current wind speed in m/s (hover to see current wind gust speed)